TIME,DELAY(SENSOR),PRES,OXYGEN,RAWTEMP,T(OPTODE),TCPHASE,FLUOR,BETA(BETA700),BETA(BETA412),BETA(BETA440),CDOM,C(CSC),ED(ED412.40),ED(ED444.00),ED(ED489.70),ED(ED554.30),LU(LU411.80),LU(LU443.40),LU(LU489.60),LU(LU554.10),COMP,TILTX,TILTY,CHECK
1370059736,5805,798.7199707031250000,42.0872001647949200,653.2595214843750000,4.8496298789978030,54.6127014160156250,53,101,88,80,79,14844,2147750710,2147424731,2148008310,2147877257,2147637330,2147060498,2148255817,2147197714,2387,4,13,55270
1370063332,5807,836.4600219726562000,44.3462715148925800,661.1278076171875000,4.5908370018005370,54.3672714233398440,52,101,85,79,80,14847,2147755520,2147425005,2148008237,2147873115,2147637586,2147057572,2148253906,2147199552,3391,4,13,47036
1370066932,5808,842.3200073242188000,44.1420097351074200,660.6749267578125000,4.6057510375976560,54.3935508728027340,52,99,86,79,80,14843,2147755337,2147423268,2148011474,2147877979,2147637138,2147054409,2148260534,2147197376,32,4,13,11201
1370070532,5809,868.1300048828125000,45.9204292297363300,661.7930908203125000,4.5689220428466800,54.1478309631347660,53,101,85,78,80,14846,2147752612,2147426688,2148010989,2147874194,2147639204,2147056877,2148262491,2147197266,3068,4,13,50026
1370074132,5806,857.3800048828125000,45.3047294616699200,663.1713867187500000,4.5235099792480470,54.2524909973144500,53,98,84,79,80,14848,2147755456,2147422089,2148011108,2147877229,2147641654,2147057993,2148261696,2147202468,175,4,13,4727
1370077732,5811,857.3300170898438000,46.1914291381835940,664.3198852539062000,4.4856510162353520,54.1395301818847660,52,100,84,79,80,14847,2147756050,2147424274,2148011017,2147876233,2147640594,2147059035,2148254491,2147198381,455,4,13,348
1370081332,5809,890.9500122070312000,48.7600212097168000,666.9058227539062000,4.4003558158874510,53.8007087707519500,52,97,84,78,79,14846,2147756626,2147424411,2148009691,2147875062,2147640118,2147054445,2148256649,2147198921,272,4,13,13786
1370084932,5809,898.9400024414062000,48.6961212158203100,666.6909179687500000,4.4074501991271970,53.8110694885253900,52,100,90,78,80,14843,2147753590,2147425590,2148009846,2147874834,2147640777,2147052690,2148261750,2147196717,3504,4,13,43792
1370088532,5809,892.7000122070312000,48.8339500427246100,667.0078735351562000,4.3969860076904300,53.7970008850097660,53,99,86,81,79,14847,2147753819,2147423789,2148008210,2147876278,2147640164,2147059620,2148266166,2147199542,206,4,13,9026
1370092132,5809,914.8900146484375000,48.5420303344726560,669.7083129882812000,4.3078351020812990,53.8697090148925800,52,99,85,82,79,14839,2147755209,2147422802,2148012013,2147876909,2147643218,2147054116,2148260608,2147197942,2892,4,13,6660
1370095732,5807,924.0800170898438000,47.8601608276367200,669.1187133789062000,4.3273048400878910,53.9560585021972660,52,103,85,79,80,14841,2147753408,2147424274,2148010002,2147873462,2147640091,2147055030,2148257060,2147196160,3491,4,13,26328
1370099332,5808,922.9699707031250000,48.5286102294921900,669.5914916992188000,4.3116908073425290,53.8722801208496100,53,97,85,78,79,14838,2147755986,2147425206,2148008347,2147877732,2147640658,2147057088,2148255579,2147195547,3027,4,13,13890
1370102932,5808,943.6599731445312000,58.1185989379882800,673.2467041015625000,4.1908869743347170,52.6262702941894500,52,98,87,80,80,14839,2147757284,2147425234,2148012196,2147875410,2147640027,2147052955,2148255798,2147197568,75,4,13,22375
1370106532,5806,943.6799926757812000,49.1358718872070300,672.8168945312500000,4.2050991058349610,53.8282203674316400,53,97,82,79,80,14838,2147755922,2147425042,2148010468,2147874843,2147641746,2147052754,2148262052,2147200484,157,4,13,43365
1370110132,5808,949.0599975585938000,49.1672401428222660,672.0833740234375000,4.2293491363525390,53.8109283447265600,53,98,86,79,79,14841,2147758363,2147424722,2148004790,2147874715,2147643200,2147054665,2148264128,2147197860,732,4,13,39162
1370113732,5807,980.7199707031250000,49.2466392517089840,674.7680053710938000,4.1405620574951170,53.8354606628418000,52,98,81,78,80,14839,2147758710,2147426057,2148011062,2147875017,2147641462,2147050267,2148263140,2147200411,166,4,13,33533
1370117332,5808,986.4600219726562000,50.0686111450195300,674.9865722656250000,4.1333289146423340,53.7276916503906250,53,98,88,78,79,14839,2147758409,2147426761,2148006930,2147878080,2147642294,2147057993,2148263076,2147198445,505,4,13,10651
1370120932,5807,985.0300292968750000,49.0392417907714840,674.6384277343750000,4.1448497772216800,53.8588600158691400,53,99,86,79,78,14839,2147756196,2147422427,2148010861,2147874267,2147642029,2147050944,2148265408,2147198445,177,4,13,41140
1370124532,5810,984.1300048828125000,49.1505203247070300,674.5076904296875000,4.1491761207580570,53.8417396545410160,52,99,85,78,80,14836,2147758902,2147424585,2148011172,2147877741,2147639378,2147055817,2148263533,2147196086,30,4,13,58514
1370128132,5812,980.2500000000000000,49.2055587768554700,674.6055297851562000,4.1459388732910160,53.8360404968261700,52,99,89,79,80,14829,2147754797,2147425490,2148009344,2147876937,2147640027,2147055588,2148264393,2147197010,872,4,13,53264
1370131732,5809,981.1300048828125000,48.9309387207031250,675.0037231445312000,4.1327672004699710,53.8777694702148440,52,99,85,78,80,14832,2147757796,2147423725,2148012086,2147875510,2147644873,2147054555,2148263259,2147196617,18,4,13,8808
1370135332,5809,976.9500122070312000,49.5921592712402340,675.3010864257812000,4.1229228973388670,53.7924003601074200,52,99,85,79,80,14836,2147755547,2147423826,2148010450,2147876352,2147639414,2147056960,2148264749,2147198308,495,4,13,16314
1370138932,5808,983.9000244140625000,49.9285316467285160,675.4262695312500000,4.1187801361083980,53.7476882934570300,51,98,88,79,81,14834,2147756690,2147424768,2148009444,2147874724,2147640237,2147055433,2148261458,2147197211,3424,4,13,4681
1370142532,5807,984.8200073242188000,49.8283615112304700,676.0020751953125000,4.0997219085693360,53.7680892944335940,52,98,87,79,80,14837,2147757156,2147427410,2148011483,2147875209,2147639798,2147052571,2148264786,2147199808,374,4,13,5403
1370146132,5808,982.8599853515625000,50.1157302856445300,675.5850830078125000,4.1135230064392090,53.7222900390625000,53,98,85,77,80,14832,2147754825,2147423003,2148008310,2147875922,2147641252,2147052891,2148254016,2147197129,122,4,13,46141
1370149732,5808,989.3400268554688000,49.9738807678222660,674.9437866210938000,4.1347470283508300,53.7387695312500000,52,99,83,79,81,14831,2147757878,2147424630,2148008932,2147875099,2147639990,2147058386,2148259373,2147195190,3060,4,13,51400
1370153332,5805,987.5200195312500000,49.1186103820800800,674.2232055664062000,4.1585879325866700,53.8475685119628900,52,98,86,79,79,14831,2147757440,2147425042,2148012352,2147875218,2147639661,2147051163,2148263506,2147201097,3549,4,13,59825
1370156932,5809,976.5399780273438000,49.6071510314941400,675.3629150390625000,4.1208758354187010,53.7943611145019500,51,99,85,79,80,14832,2147757275,2147425792,2148012205,2147875218,2147642267,2147052992,2148258971,2147200228,147,4,13,38554
1370160532,5806,982.5100097656250000,49.8582801818847660,675.8886718750000000,4.1034760475158690,53.7627487182617200,53,97,85,79,79,14835,2147755721,2147422308,2148011483,2147876900,2147640438,2147048640,2148263186,2147195346,220,4,13,35460
1370164132,5810,981.0499877929688000,50.1933517456054700,676.2122802734375000,4.0927639007568360,53.7236900329589840,52,97,84,78,79,14833,2147758820,2147425206,2148008228,2147876324,2147642898,2147053504,2148265088,2147196964,210,4,13,20770
1370167732,5807,979.5200195312500000,50.2217102050781250,676.5889282226562000,4.0802941322326660,53.7239799499511700,52,97,87,78,80,14833,2147757046,2147422217,2148011190,2147874998,2147644013,2147052041,2148259282,2147201673,3380,4,13,32630
1370171332,5808,985.5200195312500000,50.2024497985839840,676.5125122070312000,4.0828227996826170,53.7273902893066400,52,97,88,78,79,14831,2147755885,2147425993,2148012480,2147875062,2147641142,2147052342,2148264164,2147197970,3286,4,13,29490
1370174932,5806,986.3499755859375000,49.7098808288574200,675.6010131835938000,4.1129970550537110,53.7796287536621100,52,97,87,78,80,14831,2147754934,2147424502,2148012498,2147875355,2147644763,2147055277,2148260818,2147195574,3552,4,13,63217
1370178532,5810,989.2700195312500000,49.6367797851562500,675.2329101562500000,4.1251788139343260,53.7862510681152340,52,98,84,78,78,14832,2147757065,2147422281,2148009700,2147872310,2147640886,2147050724,2148259392,2147194331,519,4,13,9306
1370182132,5808,992.3800048828125000,49.7551116943359400,674.6574096679688000,4.1442217826843260,53.7635993957519500,52,100,86,79,79,14829,2147755565,2147423789,2148008000,2147876242,2147642697,2147053878,2148263652,2147199012,282,4,13,6327
1370185732,5807,990.8300170898438000,49.7405395507812500,675.1873779296875000,4.1266860961914060,53.7739105224609400,53,100,84,79,80,14830,2147754925,2147423158,2148010797,2147873782,2147641462,2147053065,2148260525,2147195282,169,4,13,37769
1370189332,5811,993.4699707031250000,49.3158912658691400,675.3906860351562000,4.1199550628662110,53.8329200744628900,52,98,83,79,80,14829,2147756096,2147422400,2148013074,2147875392,2147643410,2147059181,2148259154,2147195291,704,4,13,42819
1370192932,5809,986.5399780273438000,49.5425109863281250,675.4990234375000000,4.1163730621337890,53.8029785156250000,52,97,85,78,79,14824,2147757732,2147422509,2148011657,2147878345,2147640466,2147052928,2148257846,2147198116,180,4,13,38662
1370196532,5809,991.6199951171875000,49.1343994140625000,675.1707763671875000,4.1272339820861820,53.8511810302734400,52,98,84,78,81,14822,2147756534,2147420946,2148012681,2147876050,2147641334,2147052352,2148263030,2147199113,243,4,13,57479
1370200132,5807,986.2399902343750000,49.5576210021972660,675.3001708984375000,4.1229529380798340,53.7999610900878900,52,99,85,79,80,14822,2147753444,2147425243,2148013357,2147876178,2147642386,2147050496,2148260160,2147195309,732,4,13,31894
1370203732,5807,987.9500122070312000,50.1892395019531250,675.8502197265625000,4.1047501564025880,53.7205810546875000,52,100,86,78,79,14821,2147754706,2147422518,2148010176,2147874587,2147638144,2147051821,2148264137,2147195446,3467,4,13,38401
1370203855,5807,988.5800170898438000,50.1964683532714840,675.7872924804688000,4.1068310737609860,53.7188110351562500,53,100,88,79,79,14810,2147751195,2147426907,2148011547,2147875437,2147644324,2147047085,2148261193,2147197440,3218,4,13,35099
